Hourly Weather Roundup
Issued by NWS Central Illinois

Home | Current Version | Previous Version | Text Only | Print | Product List | Glossary On
Versions: 1 2 3 4 5 6 7 8 9 10 11 12 13 14 15 16 17 18 19 20 21 22 23 24 25 26 27 28 29 30 31 32 33 34 35 36 37 38 39 40 41 42 43 44 45 46 47 48 49 50
000
NZUS43 KILX 261410
HWRILX

AREA WEATHER ROUNDUP
NATIONAL WEATHER SERVICE, LINCOLN IL
800 AM CST FRI DEC 26 2014


CITY           SKY/WX    TMP DP  RH WIND       PRES   REMARKS
BLOOMINGTON    CLEAR     38  35  89 S16       30.05R WCI  29
CHAMPAIGN      CLEAR     37  33  85 S14       30.08R WCI  28
DECATUR        CLEAR     39  34  82 S14       30.07R WCI  31
FLORA          CLEAR     37  34  88 S12       30.15S WCI  29
GALESBURG      MOCLDY    39  35  87 S10G16    29.97R WCI  32
JACKSONVILLE   PTCLDY    42  37  80 S13       30.03R
LACON          PTCLDY    40  34  77 S9G22     30.00S WCI  34
LAWRENCEVILLE  CLEAR     35  33  92 S8        30.18R WCI  29
LITCHFIELD     CLEAR     37  33  84 S15       30.07S WCI  28
$$


CITY           SKY/WX    TMP DP  RH WIND       PRES   REMARKS
LINCOLN        CLEAR     38  35  87 S10       30.05R WCI  31
MACOMB         MOCLDY    39  36  86 S14       30.00S WCI  31
MATTOON        CLEAR     38  34  85 S12       30.09S WCI  30
MT CARMEL AP   CLEAR     37  34  87 S8        30.18R WCI  31
OLNEY-NOBLE AP CLEAR     37  34  87 S7        30.16R WCI  32
PARIS          CLEAR     39  36  89 S14G20    30.12R WCI  30
PEORIA         PTCLDY    37  33  85 S8        30.02R WCI  31
PONTIAC        CLEAR     38  35  87 S14G21    30.03S WCI  30
RANTOUL        CLEAR     38  35  86 S8        30.08R WCI  33
ROBINSON       CLEAR     35  33  93 S7        30.17R WCI  29
SPRINGFIELD    CLEAR     40  34  79 S13       30.05R WCI  32
TAYLORVILLE    CLEAR     37  34  87 S14       30.07S WCI  29
$$

...REGIONAL REPORTS...


CITY           SKY/WX    TMP DP  RH WIND       PRES   REMARKS
CHICAGO O`HARE PTCLDY    37  32  82 S9        30.00R WCI  30
KANKAKEE       CLEAR     37  33  87 S16G22    30.05R WCI  27
MOLINE         MOCLDY    41  34  76 S10       29.94R WCI  35
MOUNT VERNON   CLEAR     39  32  75 S12       30.15S WCI  32
PITTSFIELD     PTCLDY    42  36  79 S8        30.03R
QUINCY         MOCLDY    42  35  76 S13       29.99R
ROCKFORD       MOCLDY    35  32  88 SE7       29.99R WCI  29
$$


CITY           SKY/WX    TMP DP  RH WIND       PRES   REMARKS
BURLINGTON     CLOUDY    41  35  79 S12       29.96R WCI  34
CEDAR RAPIDS   PTCLDY    36  32  85 S7        29.90R WCI  30
DES MOINES     MOCLDY    34  29  82 S6        29.90R WCI  29
KIRKSVILLE     CLOUDY    37  34  89 SE7       29.95R WCI  32
OTTUMWA        PTCLDY    39  32  76 S8        29.90R WCI  33
ST LOUIS       MOCLDY    43  35  73 S9        30.07R
$$


CITY           SKY/WX    TMP DP  RH WIND       PRES   REMARKS
TERRE HAUTE    CLEAR     37  33  85 S13       30.16R WCI  29
EVANSVILLE     CLEAR     39  34  82 S7        30.22R WCI  34
INDIANAPOLIS   PTCLDY    34  32  92 S9        30.15R WCI  27
LAFAYETTE      CLEAR     37  33  85 S6        30.11S WCI  32
MADISON        PTCLDY    36  32  85 S7        29.93S WCI  30
MILWAUKEE      MOCLDY    38  32  79 SW10      29.97R WCI  31
$$





USA.gov is the U.S. government's official web portal to all federal, state and local government web resources and services.